Tracking 25703 objects as of 2-Jul-2022
HD Live streaming from Space Station
objects crossing your sky now

NOAA 16 DEB

Track NOAA 16 DEB now!
10-day predictions


NORAD ID: 42365
Int'l Code: 2000-055RH
Perigee: 774.1 km
Apogee: 855.4 km
Inclination: 98.9 °
Period: 101.0 minutes
Semi major axis: 7185 km
RCS: Unknown
Launch date: September 21, 2000
Source: United States (US)
Launch site: AIR FORCE WESTERN TEST RANGE (AFWTR)

Note: This is SATELLITE DEBRIS
aabbcc
Your satellite tracking list
Your tracking list is empty




NASA's NSSDC Master Catalog

Two Line Element Set (TLE):
1 42365U 00055RH  22182.63611103  .00001284  00000-0  55575-3 0  9991
2 42365  98.9395 310.4817 0056541  60.4580 300.2219 14.25263916330870
Source of the keplerian elements: AFSPC